Location: Tamazert
(32.6352°N, 5.2072°W)
Time: 16:07:39
(UTC+00:00)

Vanguard 3 - Pass Details

Date: 11 October 2022
Orbit: 509 x 3255 km, 33.3° (Epoch: 08 December)

Event Time Altitude Azimuth Distance (km) Brightness Sun altitude
Rises 12:34:46 0° 269° (W) 3,293 10.4 49.7°
Reaches altitude 10° 12:37:21 10° 254° (WSW) 2,635 10.2 49.6°
Maximum altitude 12:42:17 23° 203° (SSW) 2,353 10.9 49.4°
Drops below altitude 10° 12:49:33 10° 156° (SSE) 4,033 11.3 49.0°
Sets 12:54:44 0° 145° (SE) 5,580 11.8 48.7°
